Theta_e
321 323 323 323 327 329 332 337 335 332 332 329 328 327 326 324 326 322 320 320 318 316 314 314 314 313 312 312 311 312 314 315 314 312 311 310 309 306 305 303 303 302 301
322 324 325 327 328 329 330 333 333 330 330 329 328 326 323 322 324 323 318 318 317 316 315 313 313 312 312 312 311 311 314 314 312 311 309 308 307 306 305 303 302 301 301
323 323 325 327 329 329 330 330 329 328 329 329 327 325 324 320 317 317 316 316 314 313 312 312 311 311 311 311 311 310 313 313 311 310 308 308 308 306 304 303 302 301 301
322 322 323 324 325 325 323 324 321 322 324 325 325 323 323 320 317 314 313 312 311 310 311 310 310 309 309 309 310 310 312 312 310 309 309 310 310 307 305 303 301 301 300
321 321 321 322 322 322 314 312 313 316 318 320 321 323 321 319 317 315 313 311 310 308 308 308 307 306 306 306 308 309 310 310 309 309 308 309 308 307 306 304 302 300 299
321 319 318 318 316 311 311 311 311 311 313 318 320 320 321 320 317 314 313 312 311 309 308 307 305 304 303 303 304 307 308 308 308 309 309 307 307 307 306 304 302 300 299
320 320 319 317 317 317 316 309 309 311 314 314 312 313 314 314 313 313 312 311 310 309 310 307 306 304 302 302 301 301 303 307 307 307 307 306 306 306 306 305 302 301 299
316 316 316 316 317 317 317 317 318 317 316 313 310 310 312 311 311 310 310 310 308 308 307 306 305 303 302 300 299 298 299 301 305 307 306 305 306 305 305 305 302 301 298
315 314 313 312 311 311 315 317 317 317 317 316 313 314 314 311 311 311 309 308 307 305 304 303 302 301 300 300 301 300 297 297 300 301 303 304 304 304 304 304 303 300 299
314 312 311 310 310 310 310 316 316 316 317 316 316 315 313 313 311 310 310 310 309 307 305 301 300 300 300 300 298 295 295 295 295 297 297 299 300 302 303 302 302 301 300
311 310 310 309 309 310 310 312 315 315 316 316 316 314 314 312 311 310 309 309 308 306 305 301 300 300 300 300 299 298 295 293 294 295 295 298 299 300 301 301 301 301 301
309 309 309 309 309 310 311 311 312 314 316 316 316 315 311 311 307 308 308 309 308 307 306 302 299 298 297 296 294 293 293 294 294 293 297 297 299 300 300 301 301 302 301
309 308 308 308 310 311 311 312 312 313 314 315 315 315 309 308 309 308 308 308 309 306 306 302 300 300 296 295 293 292 292 294 294 295 296 296 297 299 300 301 301 300 299
308 307 307 308 311 310 310 310 310 310 311 311 313 313 311 310 310 308 308 309 308 309 305 304 302 303 300 297 294 292 292 293 294 295 295 295 296 298 299 300 300 299 298
307 307 307 308 309 309 309 310 310 310 311 311 311 311 312 309 312 309 308 308 308 308 307 305 304 303 301 299 299 300 299 293 293 292 292 294 295 296 297 298 299 298 297
308 308 307 309 308 308 308 308 307 307 308 310 310 311 310 310 309 310 309 308 307 307 306 305 304 304 304 303 300 301 300 296 293 291 291 293 293 295 296 296 297 297 297
309 310 310 309 308 308 307 306 307 307 307 308 309 310 310 310 310 308 308 308 306 306 303 304 305 304 305 304 302 301 298 292 291 291 291 291 291 291 293 294 295 295 295
308 308 308 309 307 307 306 308 307 308 309 308 309 309 310 309 308 307 307 306 305 304 302 302 303 303 304 302 301 299 296 293 290 290 290 290 290 290 289 290 291 292 293
306 307 307 308 307 306 307 307 307 307 308 308 309 309 307 306 306 305 305 305 304 302 301 300 304 303 302 300 299 297 295 292 290 289 290 291 290 290 289 289 289 289 290
305 306 307 306 307 306 307 306 306 304 307 308 308 306 305 305 305 305 304 303 302 302 300 300 300 302 299 299 298 297 293 290 290 291 292 291 289 289 288 289 289 288 289
303 304 304 305 307 306 307 307 304 304 304 305 306 306 304 305 305 304 303 302 301 300 300 299 299 299 300 299 298 295 292 292 291 290 289 289 289 288 287 287 287 287 287
303 303 302 304 305 307 306 305 304 303 304 304 305 304 304 304 304 304 303 302 300 300 299 298 297 298 298 298 297 295 292 291 291 290 289 289 288 287 285 284 285 285 285
302 303 302 303 306 307 306 306 304 303 303 303 304 304 304 303 302 302 303 302 300 299 298 297 298 297 297 297 296 295 290 291 290 289 289 288 287 286 284 284 284 284 284
302 302 302 303 306 306 306 305 304 302 302 303 303 302 302 300 299 301 301 301 300 299 298 297 297 297 295 295 295 293 290 290 289 289 290 289 287 286 284 284 283 283 283
301 302 302 303 306 306 306 306 304 303 301 300 301 302 302 301 300 299 299 299 299 299 299 298 297 296 296 296 296 293 290 289 289 289 289 287 287 286 285 284 283 283 282
303 303 302 303 305 306 306 306 305 304 303 302 300 302 301 301 300 299 298 298 297 297 297 297 297 297 296 295 295 293 291 290 289 289 288 287 287 287 286 284 284 283 282
Wind_Speed
1 3 5 5 1 5 9 11 15 20 23 27 28 31 30 25 23 22 20 20 19 22 27 24 22 26 22 23 25 25 25 24 23 22 18 14 13 12 11 9 9 9 7
3 4 6 7 5 1 4 9 16 17 22 27 24 24 26 27 26 29 24 22 22 23 22 25 22 23 21 23 25 28 27 25 28 25 20 16 13 12 12 11 9 9 6
4 5 6 7 6 4 1 6 8 13 19 27 28 26 31 28 25 26 26 23 24 25 25 27 22 20 22 24 27 31 29 29 30 29 17 13 11 17 12 11 9 8 6
5 5 6 7 7 4 3 2 5 10 17 24 29 29 31 33 35 32 32 30 30 32 36 34 33 23 21 24 27 29 30 29 33 30 18 14 12 14 14 13 10 9 8
4 4 3 4 4 4 5 6 8 10 14 17 20 24 29 33 39 38 36 34 31 30 29 32 30 27 24 20 26 25 30 27 31 28 28 14 15 13 12 20 16 11 9
4 2 2 3 3 6 9 12 15 17 16 17 16 18 22 27 33 38 35 34 32 29 29 28 28 27 27 23 23 28 29 27 27 27 27 22 19 17 14 16 19 15 10
2 2 2 4 6 8 11 17 17 17 14 9 10 15 17 21 26 29 32 32 32 33 34 35 34 34 33 27 25 24 30 31 27 23 25 21 18 13 16 13 19 17 12
4 4 6 10 15 17 16 16 17 16 17 13 12 14 16 18 22 26 27 26 28 30 29 30 29 28 27 27 22 22 24 27 29 25 23 23 19 18 16 15 24 19 15
8 11 16 21 25 24 23 19 19 19 18 16 14 15 18 21 23 21 20 20 22 25 24 24 24 25 26 28 27 24 22 27 31 29 31 22 21 17 16 16 21 24 17
15 23 28 28 26 26 24 18 18 19 20 20 17 18 20 21 16 21 23 22 22 18 21 20 23 24 24 21 17 16 20 24 27 28 26 26 18 17 18 19 20 19 14
30 31 27 25 24 23 20 19 19 19 20 22 21 19 20 15 10 14 18 24 22 22 21 17 15 16 17 16 18 20 25 24 23 21 20 19 18 16 18 19 19 20 16
24 26 25 24 23 20 19 20 19 19 19 21 20 19 23 20 14 27 21 22 28 26 22 21 21 19 19 19 21 22 20 20 20 16 16 15 14 17 18 19 20 19 17
25 26 25 22 19 16 13 12 12 14 16 18 19 18 22 18 21 29 16 19 20 23 24 23 25 22 20 21 21 21 20 17 13 14 12 13 15 16 16 19 21 19 18
27 28 26 22 14 13 12 11 11 11 13 14 18 21 22 24 24 28 25 15 20 22 25 27 25 22 22 23 22 21 16 16 13 14 12 10 11 13 16 19 20 20 20
28 31 27 20 14 12 11 11 11 13 14 15 16 17 19 19 23 30 28 24 26 25 28 29 26 23 24 27 28 24 26 20 18 18 16 13 15 16 18 18 21 21 19
30 25 24 15 11 11 12 14 15 15 14 16 16 16 17 20 21 28 34 31 29 28 29 33 31 29 26 24 24 23 24 23 21 18 18 16 19 23 24 22 23 23 20
22 22 19 13 12 13 14 15 17 17 18 16 16 17 16 17 20 22 26 27 30 33 32 35 35 32 26 22 22 22 23 24 22 21 19 18 18 21 25 27 27 25 23
21 24 24 18 16 12 14 13 15 16 16 17 15 15 14 15 18 23 24 25 30 32 35 33 35 33 29 24 20 19 21 22 21 19 18 19 18 19 22 24 25 26 27
25 25 24 25 20 13 12 13 15 15 15 15 13 13 13 12 14 18 22 27 27 29 32 34 34 34 30 25 21 22 23 22 21 19 18 15 15 18 21 22 24 27 28
23 22 23 25 25 14 10 12 15 18 12 13 11 11 10 11 13 16 19 22 29 32 29 30 33 32 29 22 20 21 24 22 22 19 20 22 21 20 21 22 22 23 22
23 23 23 24 25 13 9 12 16 17 18 15 8 9 9 10 11 12 14 17 20 21 22 25 26 24 21 21 19 23 22 19 21 22 23 22 21 20 20 22 22 21 20
23 22 21 18 17 13 8 14 14 16 16 13 10 9 9 9 9 9 9 12 13 15 17 18 19 19 21 20 19 23 23 17 17 18 19 19 19 19 19 19 19 21 20
20 18 19 30 20 9 7 8 11 12 12 9 9 9 8 8 8 7 7 10 13 15 17 19 19 22 22 21 19 23 27 22 21 22 16 12 13 18 19 20 21 20 20
17 18 19 28 22 9 8 5 5 6 7 3 3 7 8 6 8 7 8 10 13 16 18 21 23 24 24 24 21 26 30 27 27 21 21 18 17 18 20 23 22 21 22
20 18 20 28 16 11 10 7 6 4 4 5 5 3 4 5 7 7 7 8 10 12 16 21 24 27 27 26 22 27 32 33 30 24 21 22 22 22 22 23 23 24 24
19 21 18 24 20 12 11 9 8 7 5 3 4 4 4 6 7 9 9 9 8 9 11 14 19 21 21 20 20 22 26 28 27 27 27 27 26 24 23 24 23 24 25
Wind_Direction
204 26 24 19 327 240 233 229 226 251 239 232 224 233 231 234 233 221 218 218 218 219 219 200 209 217 200 201 196 192 190 189 185 171 168 165 166 166 160 155 147 136 129
151 85 66 55 63 125 215 221 253 248 241 242 245 246 241 238 240 230 216 212 212 213 210 202 210 218 204 202 200 189 191 190 184 178 172 167 173 180 165 169 164 148 137
120 88 65 57 66 72 114 219 235 242 244 239 247 254 242 233 222 219 215 210 210 215 209 207 202 213 201 207 202 193 191 189 187 183 170 167 197 173 180 175 173 160 158
107 77 65 55 45 38 6 338 292 272 254 251 254 258 250 232 220 209 208 215 215 213 213 207 200 199 202 201 199 195 196 191 188 189 200 212 213 174 168 182 182 179 165
115 87 77 68 55 46 358 342 331 304 288 273 263 255 251 246 240 230 226 230 226 224 223 219 217 203 198 202 197 196 199 196 197 194 204 189 175 171 165 169 182 181 174
174 145 88 68 33 5 351 335 324 308 296 289 283 274 267 260 250 244 239 240 240 240 234 237 225 213 210 213 204 198 199 200 206 207 206 189 187 187 177 170 177 172 172
193 212 268 291 302 308 310 322 313 309 288 255 263 266 262 264 263 255 248 241 236 234 235 226 223 216 210 210 212 214 215 203 205 212 210 188 195 195 190 184 169 165 169
208 265 288 297 297 292 286 284 278 268 251 252 261 265 262 255 249 249 243 242 246 246 235 228 217 209 205 205 205 208 220 217 208 211 204 202 195 202 189 185 167 167 175
273 289 300 299 303 297 276 270 272 271 255 248 253 257 254 246 249 242 246 246 247 238 229 224 213 206 207 202 198 201 217 224 217 218 212 198 200 200 191 187 186 176 177
292 293 302 303 299 297 292 270 269 267 261 251 250 251 253 246 235 249 250 251 250 243 228 220 220 209 202 195 188 212 224 224 226 220 215 207 195 191 190 183 188 189 195
307 305 303 303 298 295 286 280 266 264 262 253 258 264 267 224 239 273 273 269 235 229 213 225 211 205 206 199 203 214 224 216 211 208 203 191 195 179 177 179 182 186 190
303 302 303 304 302 297 282 281 270 261 259 261 260 266 272 278 285 282 275 269 243 229 214 219 219 216 216 210 209 210 212 203 204 200 192 181 181 177 178 175 179 187 186
300 302 304 301 300 296 287 283 281 271 266 259 261 258 276 277 272 255 261 275 269 232 219 222 211 208 205 206 204 203 200 196 192 193 188 180 173 176 177 176 183 181 179
296 300 300 295 288 281 275 280 279 280 283 271 260 258 255 264 245 243 238 254 268 237 223 214 208 210 200 208 211 211 195 193 187 190 176 175 165 177 183 181 183 186 178
304 304 300 293 286 279 278 280 283 285 282 279 275 271 273 261 237 246 249 236 245 239 222 214 213 211 211 211 215 217 215 205 196 200 189 182 177 178 184 187 188 188 181
300 303 293 284 275 276 284 289 287 284 280 274 273 273 270 261 257 251 252 254 246 237 220 215 214 215 217 224 228 226 215 211 211 203 187 199 192 186 186 184 189 189 188
316 327 314 285 277 285 293 295 297 291 282 273 271 274 271 263 263 257 247 243 234 231 216 216 213 215 220 225 229 230 218 211 206 198 191 210 214 202 197 191 194 187 186
311 303 296 288 277 283 294 301 306 300 292 277 273 274 266 256 246 250 244 231 228 227 222 217 210 216 222 221 222 222 215 210 215 213 213 208 207 207 208 204 201 194 190
292 291 295 291 274 276 293 301 305 309 301 290 274 274 273 259 242 237 232 224 217 224 222 213 212 216 214 213 210 214 214 210 211 206 203 213 218 218 218 212 208 208 202
304 295 285 294 272 272 288 299 303 310 300 278 276 274 267 277 249 241 242 236 223 228 226 217 214 218 210 213 210 209 203 202 204 207 213 216 222 220 220 219 217 220 214
309 297 283 286 268 267 282 284 307 313 306 286 270 260 277 280 257 248 248 241 236 232 228 226 221 213 212 212 211 204 195 201 202 209 213 220 220 220 218 218 218 221 219
301 294 301 294 260 259 278 288 308 324 316 283 260 255 282 287 274 256 242 237 229 224 228 214 209 209 208 209 207 205 197 192 199 206 214 224 221 219 216 212 212 217 213
291 286 289 295 266 254 268 283 312 340 342 281 254 241 260 266 261 247 239 228 216 217 219 211 204 201 204 213 208 208 193 193 201 211 215 216 217 212 210 214 218 220 212
282 283 289 292 266 238 247 240 285 346 2 338 266 249 253 235 247 258 240 234 222 215 215 210 206 203 199 215 208 197 195 200 211 219 221 208 216 211 211 215 215 215 215
275 276 298 289 259 244 230 230 225 268 306 340 22 36 241 249 239 248 249 242 237 239 227 215 209 207 210 221 216 204 202 207 216 218 209 203 204 207 210 214 217 217 216
288 269 276 273 258 239 237 234 235 233 235 252 326 301 266 243 239 245 236 224 220 223 220 225 220 215 226 232 227 213 214 216 223 221 213 208 210 214 221 222 223 221 221